Location: Newark
(54.8972°N, 99.8189°W)
Time: 04:57:33
(UTC+00:00)

Vanguard 2 - All Passes

Search period start: 19 November 2019 00:00
Search period end: 29 November 2019 00:00
Orbit: 554 x 2937 km, 32.9° (Epoch: 18 November)

Date Brightness Start Highest point End Pass type
(mag) Time Alt. Az. Time Alt. Az. Time Alt. Az.
20 Nov - 14:52:12 10° S 14:54:46 11° S 14:57:04 10° SSE daylight
21 Nov - 15:08:16 10° SSW 15:12:17 13° S 15:15:38 10° SSE daylight
22 Nov - 13:17:56 10° S 13:21:57 12° SSE 13:25:26 10° SE visible
22 Nov - 15:25:02 10° SW 15:29:46 15° S 15:33:36 10° SSE daylight
23 Nov - 13:33:27 10° SSW 13:39:27 15° S 13:44:19 10° SE visible
23 Nov - 15:42:12 10° SW 15:47:13 15° S 15:51:13 10° SSE daylight
24 Nov - 11:45:15 10° S 11:48:41 11° SSE 11:51:50 10° SE visible
24 Nov - 13:49:47 10° SSW 13:56:58 18° S 14:02:32 10° SE visible
24 Nov - 15:59:40 10° SW 16:04:36 15° SSW 16:08:35 10° SSE daylight
25 Nov - 11:59:26 10° S 12:06:09 15° SSE 12:11:46 10° SE visible
25 Nov - 14:06:33 10° SW 14:14:27 19° S 14:20:26 10° SE daylight
25 Nov - 16:17:26 10° SW 16:21:57 14° SSW 16:25:39 10° S daylight
26 Nov - 12:15:05 10° SSW 12:23:37 18° SSE 12:30:26 10° SE visible
26 Nov - 14:23:38 10° SW 14:31:54 20° S 14:38:05 10° SE daylight
26 Nov - 16:35:36 10° SW 16:39:13 13° SSW 16:42:18 10° S daylight
27 Nov - 10:27:12 10° S 10:32:29 12° SSE 10:37:16 10° SE visible
27 Nov - 12:31:21 10° SSW 12:41:05 21° S 12:48:37 10° SE visible
27 Nov - 14:40:57 10° SW 14:49:19 21° SSW 14:55:33 10° SSE daylight
27 Nov - 16:54:46 10° SW 16:56:24 11° SSW 16:57:57 10° SSW daylight
28 Nov - 10:41:29 10° S 10:49:51 16° SSE 10:57:01 10° ESE visible
28 Nov - 12:48:02 10° SW 12:58:33 23° S 13:06:31 10° SE visible
28 Nov - 14:58:29 10° WSW 15:06:41 20° SSW 15:12:50 10° SSE daylight
